HST 1 20580U 90037B 24319.49399431 .00009948 00000-0 42605-3 0 9995 2 20580 28.4690 55.8672 0001842 226.0326 134.0115 15.21085168699911 ISS (ZARYA) 1 25544U 98067A 24320.36274227 .00015569 00000-0 28188-3 0 9990 2 25544 51.6413 286.4173 0007936 217.3657 298.3197 15.49809951481990 CXO 1 25867U 99040B 24321.23407868 .00000577 00000-0 00000-0 0 9999 2 25867 44.6271 141.7671 8729341 304.0864 359.8811 0.37810324 15133